VPBBZ LYTV-OTHH

Flight info

Callsign VPBBZ
Flight time 4h 12m
Altitude 37000
Route LASTI DCT INLOT DCT MAVAR DCT TALAS UN130 MES UL609 ALKIS L609 MAROS/N0449F390 L609 APLON P68 MERVA H14 NAT/N0453F370 J10 ADLOD/N0450F390 N134 TULEP N318 DEBOL N685 MAANI N318 GESOR L681 ORLEK
Aircraft B738/M-SDE2E3FGHIRWXY/LB1

Departure

Time 2026-05-09 14:37
Airport Tivat Airport (LYTV)

Arrival

Time 2026-05-09 18:50
Airport Hamad International Airport (OTHH)
Time Latitude Longitude Altitude Speed Heading
2026-05-09 13:58 42.41307 18.71593 21 ft 0 kts 160°
2026-05-09 14:25 42.41313 18.71590 17 ft 4 kts 169°
2026-05-09 14:25 42.41326 18.71598 18 ft 4 kts 241°
2026-05-09 14:25 42.41335 18.71617 19 ft 0 kts 225°
2026-05-09 14:30 42.41332 18.71614 19 ft 2 kts 225°
2026-05-09 14:31 42.41307 18.71590 17 ft 6 kts 209°
2026-05-09 14:31 42.41268 18.71575 18 ft 6 kts 167°
2026-05-09 14:31 42.41234 18.71611 18 ft 6 kts 136°
2026-05-09 14:31 42.41195 18.71658 17 ft 10 kts 139°
2026-05-09 14:32 42.41132 18.71730 17 ft 14 kts 140°
2026-05-09 14:32 42.41060 18.71814 17 ft 12 kts 140°
2026-05-09 14:32 42.40989 18.71835 17 ft 12 kts 216°
2026-05-09 14:32 42.40981 18.71826 19 ft 0 kts 220°
2026-05-09 14:33 42.40957 18.71798 16 ft 11 kts 220°
2026-05-09 14:34 42.40890 18.71824 17 ft 13 kts 136°
2026-05-09 14:34 42.40781 18.71957 16 ft 28 kts 139°
2026-05-09 14:34 42.40622 18.72147 15 ft 31 kts 139°
2026-05-09 14:34 42.40463 18.72335 16 ft 29 kts 139°
2026-05-09 14:35 42.40313 18.72512 18 ft 28 kts 139°
2026-05-09 14:35 42.40174 18.72675 17 ft 26 kts 139°
2026-05-09 14:35 42.40012 18.72869 15 ft 35 kts 139°
2026-05-09 14:35 42.39831 18.73082 15 ft 34 kts 139°
2026-05-09 14:36 42.39692 18.73242 13 ft 18 kts 150°
2026-05-09 14:36 42.39618 18.73293 13 ft 10 kts 88°
2026-05-09 14:36 42.39661 18.73288 13 ft 8 kts 299°
2026-05-09 14:36 42.39705 18.73232 13 ft 13 kts 318°
2026-05-09 14:37 42.39925 18.72970 15 ft 79 kts 319°
2026-05-09 14:37 42.40528 18.72257 16 ft 145 kts 319°
2026-05-09 14:37 42.41354 18.71276 381 ft 165 kts 319°
2026-05-09 14:37 42.42189 18.70182 1079 ft 168 kts 301°
2026-05-09 14:38 42.42335 18.68647 1802 ft 171 kts 249°
2026-05-09 14:38 42.41506 18.67408 2225 ft 199 kts 207°
2026-05-09 14:38 42.40191 18.66529 2636 ft 217 kts 212°
2026-05-09 14:38 42.38916 18.65329 3115 ft 228 kts 219°
2026-05-09 14:39 42.37668 18.63971 3689 ft 233 kts 221°
2026-05-09 14:39 42.36430 18.62568 4310 ft 236 kts 221°
2026-05-09 14:39 42.35153 18.61102 4974 ft 241 kts 221°
2026-05-09 14:39 42.33866 18.59619 5744 ft 244 kts 220°
2026-05-09 14:40 42.32372 18.58491 6398 ft 258 kts 194°
2026-05-09 14:40 42.30520 18.58574 6749 ft 278 kts 159°
2026-05-09 14:40 42.28863 18.59961 7466 ft 283 kts 136°
2026-05-09 14:40 42.27489 18.61876 8251 ft 287 kts 130°
2026-05-09 14:41 42.26173 18.63930 9041 ft 292 kts 129°
2026-05-09 14:41 42.24842 18.66035 9845 ft 297 kts 129°
2026-05-09 14:41 42.23480 18.68164 10557 ft 302 kts 130°
2026-05-09 14:41 42.22082 18.70320 11259 ft 308 kts 131°
2026-05-09 14:42 42.20650 18.72502 11979 ft 314 kts 131°
2026-05-09 14:42 42.19325 18.74913 12408 ft 332 kts 116°
2026-05-09 14:42 42.18384 18.77842 12611 ft 355 kts 110°
2026-05-09 14:42 42.17464 18.81112 12917 ft 374 kts 110°
2026-05-09 14:43 42.16547 18.84396 13486 ft 383 kts 110°
2026-05-09 14:43 42.15584 18.87768 14161 ft 388 kts 111°
2026-05-09 14:43 42.14589 18.91168 14878 ft 392 kts 111°
2026-05-09 14:43 42.13572 18.94582 15626 ft 395 kts 111°
2026-05-09 14:44 42.12530 18.98032 16343 ft 399 kts 111°
2026-05-09 14:44 42.11472 19.01512 17039 ft 404 kts 111°
2026-05-09 14:44 42.10399 19.05026 17720 ft 408 kts 111°
2026-05-09 14:44 42.09312 19.08582 18395 ft 413 kts 111°
2026-05-09 14:45 42.08211 19.12175 18946 ft 419 kts 111°
2026-05-09 14:45 42.07090 19.15831 19443 ft 426 kts 111°
2026-05-09 14:45 42.05950 19.19542 19957 ft 432 kts 111°
2026-05-09 14:45 42.04778 19.23352 20382 ft 439 kts 111°
2026-05-09 14:46 42.03617 19.27127 20932 ft 442 kts 111°
2026-05-09 14:46 42.02433 19.30966 21439 ft 448 kts 111°
2026-05-09 14:46 42.01231 19.34860 21870 ft 454 kts 111°
2026-05-09 14:46 42.00011 19.38811 22328 ft 460 kts 111°
2026-05-09 14:47 41.98775 19.42803 22813 ft 465 kts 110°
2026-05-09 14:47 41.97529 19.46841 23286 ft 470 kts 110°
2026-05-09 14:47 41.96331 19.50943 23809 ft 472 kts 109°
2026-05-09 14:47 41.95167 19.55083 24227 ft 476 kts 108°
2026-05-09 14:48 41.94005 19.59263 24654 ft 480 kts 108°
2026-05-09 14:48 41.92833 19.63472 25052 ft 484 kts 108°
2026-05-09 14:48 41.91642 19.67720 25441 ft 488 kts 109°
2026-05-09 14:48 41.90436 19.71990 25823 ft 491 kts 109°
2026-05-09 14:49 41.89211 19.76300 26129 ft 497 kts 109°
2026-05-09 14:49 41.88373 19.79240 26365 ft 500 kts 109°
2026-05-09 14:49 41.87123 19.83609 26829 ft 501 kts 109°
2026-05-09 14:49 41.85872 19.87972 27245 ft 503 kts 109°
2026-05-09 14:50 41.84611 19.92364 27611 ft 507 kts 109°
2026-05-09 14:50 41.83339 19.96792 27955 ft 511 kts 109°
2026-05-09 14:50 41.82056 20.01246 28313 ft 514 kts 109°
2026-05-09 14:50 41.80764 20.05728 28648 ft 517 kts 109°
2026-05-09 14:51 41.79457 20.10254 28992 ft 520 kts 109°
2026-05-09 14:51 41.78149 20.14779 29312 ft 523 kts 109°
2026-05-09 14:51 41.76828 20.19335 29626 ft 527 kts 109°
2026-05-09 14:51 41.75497 20.23920 29878 ft 530 kts 109°
2026-05-09 14:52 41.74156 20.28533 30168 ft 533 kts 109°
2026-05-09 14:52 41.72807 20.33164 30435 ft 535 kts 109°
2026-05-09 14:52 41.71452 20.37800 30774 ft 535 kts 109°
2026-05-09 14:52 41.70095 20.42442 31155 ft 535 kts 109°
2026-05-09 14:53 41.68740 20.47070 31527 ft 534 kts 109°
2026-05-09 14:53 41.67379 20.51702 31861 ft 536 kts 110°
2026-05-09 14:53 41.65835 20.56248 32157 ft 539 kts 116°
2026-05-09 14:53 41.64041 20.60645 32467 ft 539 kts 118°
2026-05-09 14:54 41.62175 20.64978 32860 ft 538 kts 120°
2026-05-09 14:54 41.60286 20.69295 33216 ft 538 kts 120°
2026-05-09 14:54 41.58401 20.73619 33535 ft 539 kts 120°
2026-05-09 14:54 41.56532 20.77956 33915 ft 538 kts 119°
2026-05-09 14:55 41.54659 20.82351 34339 ft 536 kts 119°
2026-05-09 14:55 41.52805 20.86732 34638 ft 536 kts 118°
2026-05-09 14:55 41.50973 20.91073 34925 ft 536 kts 119°
2026-05-09 14:55 41.49148 20.95397 35276 ft 534 kts 119°
2026-05-09 14:56 41.47330 20.99695 35701 ft 530 kts 119°
2026-05-09 14:56 41.45520 21.03968 36054 ft 528 kts 120°
2026-05-09 14:56 41.43711 21.08226 36364 ft 528 kts 120°
2026-05-09 14:56 41.41900 21.12479 36630 ft 527 kts 120°
2026-05-09 14:57 41.40090 21.16724 36912 ft 526 kts 120°
2026-05-09 14:57 41.38281 21.20961 37092 ft 527 kts 120°
2026-05-09 14:57 41.34643 21.29461 37067 ft 526 kts 120°
2026-05-09 14:58 41.30943 21.38082 37076 ft 526 kts 120°
2026-05-09 14:58 41.27303 21.46541 37130 ft 529 kts 120°
2026-05-09 14:59 41.25467 21.50797 37330 ft 531 kts 120°
2026-05-09 14:59 41.23630 21.55053 37532 ft 531 kts 120°
2026-05-09 14:59 41.21764 21.59367 37759 ft 531 kts 120°
2026-05-09 14:59 41.19924 21.63615 38015 ft 530 kts 120°
2026-05-09 15:00 41.18094 21.67835 38351 ft 525 kts 121°
2026-05-09 15:00 41.16277 21.72020 38791 ft 520 kts 121°
2026-05-09 15:00 41.14478 21.76161 39074 ft 518 kts 121°
2026-05-09 15:00 41.12669 21.80313 39069 ft 521 kts 121°
2026-05-09 15:01 41.07199 21.92729 39066 ft 517 kts 125°
2026-05-09 15:02 41.02960 22.00380 39061 ft 513 kts 130°
2026-05-09 15:02 40.98548 22.07849 39062 ft 511 kts 130°
2026-05-09 15:03 40.94223 22.15291 39080 ft 510 kts 129°
2026-05-09 15:03 40.89932 22.22774 39056 ft 511 kts 129°
2026-05-09 15:04 40.85630 22.30277 39047 ft 513 kts 129°
2026-05-09 15:06 40.68218 22.60437 39025 ft 520 kts 129°
2026-05-09 15:06 40.63790 22.68078 39021 ft 522 kts 129°
2026-05-09 15:07 40.59375 22.75677 39017 ft 523 kts 129°
2026-05-09 15:07 40.54952 22.83270 39030 ft 523 kts 129°
2026-05-09 15:08 40.50522 22.90859 39018 ft 523 kts 129°
2026-05-09 15:08 40.43758 23.02069 39020 ft 520 kts 134°
2026-05-09 15:10 40.23805 23.29263 39012 ft 515 kts 135°
2026-05-09 15:11 40.18866 23.36045 39012 ft 514 kts 136°
2026-05-09 15:11 40.13933 23.42799 39013 ft 513 kts 136°
2026-05-09 15:12 40.09002 23.49527 39016 ft 513 kts 136°
2026-05-09 15:12 40.04055 23.56262 39020 ft 514 kts 136°
2026-05-09 15:13 39.99099 23.62993 39013 ft 515 kts 136°
2026-05-09 15:13 39.94125 23.69735 39012 ft 516 kts 136°
2026-05-09 15:14 39.89103 23.76527 39016 ft 517 kts 136°
2026-05-09 15:14 39.84948 23.82135 39010 ft 518 kts 136°
2026-05-09 15:15 39.79942 23.88877 39015 ft 518 kts 136°
2026-05-09 15:15 39.74926 23.95617 39015 ft 519 kts 136°
2026-05-09 15:16 39.69901 24.02354 39002 ft 519 kts 136°
2026-05-09 15:16 39.64874 24.09080 39015 ft 519 kts 136°
2026-05-09 15:17 39.59849 24.15789 38980 ft 518 kts 136°
2026-05-09 15:17 39.54826 24.22478 38996 ft 517 kts 136°
2026-05-09 15:18 39.49810 24.29145 39002 ft 516 kts 136°
2026-05-09 15:18 39.44796 24.35795 39009 ft 516 kts 136°
2026-05-09 15:19 39.39781 24.42432 39011 ft 516 kts 136°
2026-05-09 15:19 39.34761 24.49063 39010 ft 516 kts 136°
2026-05-09 15:20 39.27279 24.59053 39000 ft 516 kts 136°
2026-05-09 15:21 39.22306 24.65737 39004 ft 516 kts 136°
2026-05-09 15:21 39.17284 24.72454 39005 ft 517 kts 136°
2026-05-09 15:22 39.12306 24.79092 39007 ft 518 kts 136°
2026-05-09 15:22 39.07266 24.85742 39005 ft 519 kts 137°
2026-05-09 15:23 39.02136 24.92374 39000 ft 520 kts 137°
2026-05-09 15:23 38.97023 24.98965 38998 ft 520 kts 137°
2026-05-09 15:24 38.91912 25.05558 39013 ft 521 kts 137°
2026-05-09 15:24 38.86789 25.12164 39005 ft 522 kts 137°
2026-05-09 15:25 38.81657 25.18768 39000 ft 523 kts 137°
2026-05-09 15:25 38.76518 25.25366 39003 ft 523 kts 137°
2026-05-09 15:26 38.68807 25.35239 38993 ft 522 kts 137°
2026-05-09 15:26 38.63663 25.41805 39003 ft 522 kts 137°
2026-05-09 15:27 38.58518 25.48361 39000 ft 522 kts 138°
2026-05-09 15:27 38.53370 25.54905 39006 ft 522 kts 138°
2026-05-09 15:28 38.48220 25.61439 39005 ft 522 kts 138°
2026-05-09 15:28 38.43065 25.67967 39014 ft 522 kts 138°
2026-05-09 15:29 38.37908 25.74484 38998 ft 522 kts 138°
2026-05-09 15:29 38.32765 25.81000 39011 ft 522 kts 138°
2026-05-09 15:30 38.27626 25.87528 39017 ft 522 kts 138°
2026-05-09 15:30 38.22378 25.93903 39018 ft 521 kts 142°
2026-05-09 15:31 38.16849 25.99924 39025 ft 527 kts 143°
2026-05-09 15:31 38.11238 26.06023 38996 ft 533 kts 142°
2026-05-09 15:32 38.05638 26.12203 39009 ft 535 kts 142°
2026-05-09 15:32 38.00005 26.18403 39013 ft 536 kts 142°
2026-05-09 15:33 37.94362 26.24595 39009 ft 537 kts 142°
2026-05-09 15:33 37.88714 26.30786 39015 ft 536 kts 142°
2026-05-09 15:34 37.83043 26.36992 39004 ft 535 kts 142°
2026-05-09 15:34 37.77429 26.43142 39009 ft 533 kts 143°
2026-05-09 15:35 37.71848 26.49246 39009 ft 532 kts 143°
2026-05-09 15:35 37.66253 26.55344 39016 ft 531 kts 143°
2026-05-09 15:36 37.60653 26.61409 39023 ft 530 kts 143°
2026-05-09 15:36 37.55016 26.67503 39017 ft 530 kts 143°
2026-05-09 15:37 37.49418 26.73546 39020 ft 530 kts 143°
2026-05-09 15:37 37.43824 26.79577 39020 ft 529 kts 143°
2026-05-09 15:38 37.38257 26.85640 39015 ft 530 kts 141°
2026-05-09 15:38 37.32853 26.92049 39022 ft 530 kts 139°
2026-05-09 15:39 37.27551 26.98496 39017 ft 530 kts 139°
2026-05-09 15:39 37.22231 27.04899 39002 ft 530 kts 140°
2026-05-09 15:40 37.16891 27.11258 39014 ft 529 kts 140°
2026-05-09 15:40 37.11543 27.17596 39017 ft 529 kts 140°
2026-05-09 15:41 37.06194 27.23928 39020 ft 529 kts 140°
2026-05-09 15:41 37.00845 27.30249 39017 ft 529 kts 140°
2026-05-09 15:42 36.95491 27.36563 39021 ft 528 kts 141°
2026-05-09 15:42 36.90143 27.42857 39012 ft 527 kts 141°
2026-05-09 15:43 36.84803 27.49133 39011 ft 527 kts 141°
2026-05-09 15:43 36.79429 27.55434 39018 ft 526 kts 141°
2026-05-09 15:44 36.74091 27.61679 39018 ft 526 kts 141°
2026-05-09 15:44 36.68750 27.67915 39014 ft 526 kts 141°
2026-05-09 15:45 36.63406 27.74143 39020 ft 526 kts 141°
2026-05-09 15:45 36.58072 27.80349 39015 ft 524 kts 141°
2026-05-09 15:46 36.52743 27.86535 39012 ft 523 kts 141°
2026-05-09 15:46 36.48286 27.91700 39019 ft 522 kts 142°
2026-05-09 15:47 36.42968 27.97851 39026 ft 522 kts 142°
2026-05-09 15:47 36.37655 28.03986 39021 ft 521 kts 142°
2026-05-09 15:48 36.32554 28.10405 39006 ft 528 kts 130°
2026-05-09 15:48 36.28312 28.17815 39016 ft 526 kts 128°
2026-05-09 15:49 36.24122 28.25239 39020 ft 525 kts 128°
2026-05-09 15:49 36.19874 28.32586 39030 ft 524 kts 129°
2026-05-09 15:50 36.15610 28.39893 39039 ft 523 kts 129°
2026-05-09 15:50 36.11353 28.47183 39034 ft 523 kts 129°
2026-05-09 15:51 36.07081 28.54450 39036 ft 522 kts 129°
2026-05-09 15:51 36.02808 28.61701 39044 ft 521 kts 129°
2026-05-09 15:52 35.96407 28.72550 39042 ft 520 kts 130°
2026-05-09 15:53 35.92144 28.79762 39049 ft 520 kts 130°
2026-05-09 15:53 35.87895 28.86957 39044 ft 518 kts 130°
2026-05-09 15:54 35.83655 28.94127 39041 ft 517 kts 130°
2026-05-09 15:54 35.79421 29.01272 39049 ft 516 kts 130°
2026-05-09 15:55 35.75190 29.08395 39049 ft 515 kts 130°
2026-05-09 15:55 35.70962 29.15497 39055 ft 514 kts 130°
2026-05-09 15:56 35.66703 29.22637 39060 ft 514 kts 130°
2026-05-09 15:56 35.62477 29.29708 39053 ft 513 kts 130°
2026-05-09 15:57 35.58251 29.36764 39058 ft 512 kts 130°
2026-05-09 15:57 35.54027 29.43803 39060 ft 512 kts 130°
2026-05-09 15:58 35.49803 29.50826 39049 ft 511 kts 130°
2026-05-09 15:58 35.45587 29.57824 39050 ft 510 kts 130°
2026-05-09 15:59 35.41372 29.64807 39062 ft 509 kts 131°
2026-05-09 15:59 35.37159 29.71770 39062 ft 508 kts 131°
2026-05-09 16:00 35.32948 29.78717 39062 ft 508 kts 131°
2026-05-09 16:00 35.28735 29.85655 39063 ft 507 kts 131°
2026-05-09 16:01 35.24522 29.92579 39064 ft 507 kts 131°
2026-05-09 16:01 35.20313 29.99485 39061 ft 506 kts 131°
2026-05-09 16:02 35.15974 30.06323 39062 ft 505 kts 133°
2026-05-09 16:02 35.09364 30.16299 39058 ft 503 kts 133°
2026-05-09 16:03 35.04966 30.22966 39065 ft 505 kts 133°
2026-05-09 16:03 35.00566 30.29662 39064 ft 506 kts 133°
2026-05-09 16:04 34.96155 30.36370 39066 ft 507 kts 133°
2026-05-09 16:04 34.91736 30.43075 39071 ft 507 kts 133°
2026-05-09 16:05 34.87316 30.49766 39066 ft 507 kts 133°
2026-05-09 16:05 34.82895 30.56445 39062 ft 506 kts 133°
2026-05-09 16:06 34.78478 30.63107 39070 ft 505 kts 133°
2026-05-09 16:06 34.74062 30.69753 39046 ft 505 kts 133°
2026-05-09 16:07 34.69655 30.76375 39061 ft 503 kts 133°
2026-05-09 16:07 34.65250 30.82983 39068 ft 503 kts 133°
2026-05-09 16:08 34.60850 30.89582 39067 ft 503 kts 132°
2026-05-09 16:08 34.56591 30.96326 39071 ft 504 kts 130°
2026-05-09 16:09 34.52394 31.03135 39070 ft 504 kts 130°
2026-05-09 16:09 34.48176 31.09927 39072 ft 504 kts 131°
2026-05-09 16:10 34.43935 31.16697 39072 ft 504 kts 131°
2026-05-09 16:10 34.39684 31.23456 39069 ft 505 kts 131°
2026-05-09 16:11 34.35427 31.30211 39068 ft 505 kts 131°
2026-05-09 16:11 34.31171 31.36956 39064 ft 503 kts 131°
2026-05-09 16:12 34.26922 31.43679 39060 ft 503 kts 131°
2026-05-09 16:12 34.22675 31.50384 39058 ft 502 kts 131°
2026-05-09 16:13 34.18429 31.57076 39069 ft 501 kts 131°
2026-05-09 16:13 34.14183 31.63755 39066 ft 501 kts 131°
2026-05-09 16:14 34.09938 31.70421 39075 ft 501 kts 131°
2026-05-09 16:14 34.05690 31.77078 39063 ft 500 kts 131°
2026-05-09 16:15 34.01444 31.83722 39061 ft 500 kts 131°
2026-05-09 16:15 33.97198 31.90353 39060 ft 499 kts 131°
2026-05-09 16:16 33.92955 31.96968 39065 ft 499 kts 131°
2026-05-09 16:16 33.88710 32.03574 39056 ft 499 kts 131°
2026-05-09 16:17 33.84885 32.10559 39069 ft 503 kts 120°
2026-05-09 16:17 33.81714 32.18124 39068 ft 503 kts 119°
2026-05-09 16:18 33.78586 32.25649 39060 ft 503 kts 119°
2026-05-09 16:18 33.75410 32.33143 39062 ft 503 kts 120°
2026-05-09 16:19 33.72205 32.40614 39058 ft 503 kts 120°
2026-05-09 16:19 33.68991 32.48077 39056 ft 503 kts 120°
2026-05-09 16:20 33.65776 32.55531 39057 ft 503 kts 120°
2026-05-09 16:20 33.62559 32.62979 39050 ft 503 kts 120°
2026-05-09 16:21 33.59339 32.70423 39056 ft 503 kts 120°
2026-05-09 16:21 33.56112 32.77863 39055 ft 503 kts 120°
2026-05-09 16:22 33.53430 32.84036 39051 ft 503 kts 120°
2026-05-09 16:22 33.50197 32.91462 39048 ft 502 kts 120°
2026-05-09 16:23 33.46963 32.98876 39051 ft 502 kts 120°
2026-05-09 16:23 33.43725 33.06281 39048 ft 502 kts 120°
2026-05-09 16:24 33.40485 33.13677 39051 ft 502 kts 120°
2026-05-09 16:24 33.37238 33.21072 39046 ft 502 kts 120°
2026-05-09 16:25 33.33987 33.28463 39053 ft 502 kts 120°
2026-05-09 16:25 33.30727 33.35860 39043 ft 503 kts 120°
2026-05-09 16:26 33.27462 33.43253 39050 ft 503 kts 120°
2026-05-09 16:26 33.24192 33.50641 39050 ft 503 kts 120°
2026-05-09 16:27 33.20941 33.58040 39049 ft 503 kts 120°
2026-05-09 16:27 33.17699 33.65452 39049 ft 503 kts 120°
2026-05-09 16:28 33.14456 33.72851 39040 ft 503 kts 120°
2026-05-09 16:28 33.11207 33.80237 39044 ft 502 kts 120°
2026-05-09 16:29 33.07958 33.87604 39048 ft 502 kts 120°
2026-05-09 16:29 33.04705 33.94964 39046 ft 502 kts 120°
2026-05-09 16:30 33.01451 34.02314 39042 ft 502 kts 121°
2026-05-09 16:30 32.98190 34.09663 39049 ft 502 kts 121°
2026-05-09 16:31 32.94925 34.17006 39042 ft 502 kts 121°
2026-05-09 16:31 32.91656 34.24346 39039 ft 502 kts 121°
2026-05-09 16:32 32.88914 34.30490 39042 ft 502 kts 121°
2026-05-09 16:32 32.85106 34.39006 39037 ft 502 kts 121°
2026-05-09 16:33 32.81827 34.46324 39040 ft 502 kts 121°
2026-05-09 16:33 32.78289 34.53434 39029 ft 496 kts 132°
2026-05-09 16:34 32.73454 34.59125 39046 ft 486 kts 147°
2026-05-09 16:34 32.68107 34.64040 39015 ft 486 kts 147°
2026-05-09 16:35 32.62802 34.69022 39027 ft 487 kts 146°
2026-05-09 16:35 32.57519 34.74041 39024 ft 487 kts 146°
2026-05-09 16:36 32.46932 34.84059 39031 ft 487 kts 146°
2026-05-09 16:37 32.41649 34.89081 39032 ft 487 kts 146°
2026-05-09 16:37 32.36355 34.94102 39022 ft 488 kts 146°
2026-05-09 16:38 32.31041 34.99073 39030 ft 486 kts 148°
2026-05-09 16:38 32.25597 35.03813 39031 ft 486 kts 149°
2026-05-09 16:39 32.20128 35.08530 39042 ft 487 kts 149°
2026-05-09 16:39 32.14673 35.13286 39035 ft 488 kts 149°
2026-05-09 16:40 32.09222 35.18050 39043 ft 488 kts 149°
2026-05-09 16:42 31.96288 35.41269 39039 ft 510 kts 110°
2026-05-09 16:42 31.95168 35.45292 39043 ft 510 kts 111°
2026-05-09 16:42 31.93337 35.53301 39034 ft 514 kts 99°
2026-05-09 16:43 31.92561 35.61659 39040 ft 513 kts 104°
2026-05-09 16:43 31.90182 35.69502 39069 ft 508 kts 119°
2026-05-09 16:44 31.87071 35.76964 39066 ft 508 kts 120°
2026-05-09 16:44 31.83939 35.84434 39065 ft 510 kts 120°
2026-05-09 16:45 31.80851 35.91944 39074 ft 510 kts 119°
2026-05-09 16:45 31.77785 35.99469 39075 ft 511 kts 119°
2026-05-09 16:46 31.74719 36.06991 39078 ft 511 kts 119°
2026-05-09 16:46 31.71642 36.14514 39071 ft 511 kts 120°
2026-05-09 16:47 31.68559 36.22027 39073 ft 511 kts 120°
2026-05-09 16:47 31.65471 36.29539 39054 ft 511 kts 120°
2026-05-09 16:48 31.62377 36.37046 39040 ft 511 kts 120°
2026-05-09 16:48 31.59276 36.44556 39041 ft 511 kts 120°
2026-05-09 16:49 31.56173 36.52056 39014 ft 511 kts 120°
2026-05-09 16:50 31.51509 36.63301 39018 ft 511 kts 120°
2026-05-09 16:50 31.48394 36.70790 39003 ft 511 kts 120°
2026-05-09 16:51 31.45276 36.78273 38975 ft 511 kts 120°
2026-05-09 16:51 31.42159 36.85739 38971 ft 510 kts 120°
2026-05-09 16:52 31.39044 36.93183 38963 ft 509 kts 120°
2026-05-09 16:52 31.35926 37.00619 38961 ft 509 kts 120°
2026-05-09 16:53 31.32802 37.08055 38942 ft 509 kts 120°
2026-05-09 16:53 31.29672 37.15491 38943 ft 510 kts 120°
2026-05-09 16:54 31.26538 37.22925 38945 ft 510 kts 120°
2026-05-09 16:54 31.23888 37.30659 38949 ft 515 kts 112°
2026-05-09 16:55 31.21628 37.38611 38947 ft 516 kts 112°
2026-05-09 16:55 31.19313 37.46536 38952 ft 516 kts 112°
2026-05-09 16:56 31.16931 37.54433 38961 ft 515 kts 113°
2026-05-09 16:56 31.14542 37.62325 38973 ft 515 kts 113°
2026-05-09 16:57 31.12142 37.70206 38977 ft 515 kts 113°
2026-05-09 16:57 31.09734 37.78083 38979 ft 515 kts 113°
2026-05-09 16:58 31.07312 37.85993 38984 ft 514 kts 113°
2026-05-09 16:58 31.04920 37.93793 38994 ft 514 kts 113°
2026-05-09 16:59 31.02490 38.01693 38997 ft 514 kts 113°
2026-05-09 16:59 31.00075 38.09528 39005 ft 513 kts 113°
2026-05-09 17:00 30.97657 38.17354 39014 ft 513 kts 113°
2026-05-09 17:00 30.95234 38.25176 39017 ft 513 kts 113°
2026-05-09 17:01 30.93218 38.31667 39021 ft 513 kts 113°
2026-05-09 17:01 30.90788 38.39475 39021 ft 513 kts 113°
2026-05-09 17:02 30.88355 38.47277 39027 ft 512 kts 113°
2026-05-09 17:02 30.85919 38.55068 39034 ft 512 kts 113°
2026-05-09 17:03 30.83477 38.62857 39026 ft 512 kts 113°
2026-05-09 17:05 30.72223 38.93092 39049 ft 508 kts 121°
2026-05-09 17:05 30.69047 39.00353 39060 ft 508 kts 120°
2026-05-09 17:06 30.65890 39.07687 39067 ft 508 kts 120°
2026-05-09 17:06 30.62741 39.15024 39069 ft 507 kts 120°
2026-05-09 17:07 30.59592 39.22339 39082 ft 506 kts 121°
2026-05-09 17:07 30.56439 39.29639 39078 ft 506 kts 121°
2026-05-09 17:08 30.53282 39.36934 39084 ft 505 kts 121°
2026-05-09 17:08 30.48546 39.47851 39092 ft 505 kts 121°
2026-05-09 17:09 30.45387 39.55118 39091 ft 505 kts 121°
2026-05-09 17:09 30.42225 39.62377 39093 ft 505 kts 121°
2026-05-09 17:10 30.38511 39.69182 39113 ft 497 kts 132°
2026-05-09 17:10 30.34311 39.75539 39096 ft 497 kts 133°
2026-05-09 17:11 30.30117 39.81900 39095 ft 497 kts 132°
2026-05-09 17:11 30.25933 39.88353 39102 ft 498 kts 132°
2026-05-09 17:12 30.21792 39.94775 39087 ft 498 kts 132°
2026-05-09 17:12 30.17675 40.01149 39098 ft 498 kts 132°
2026-05-09 17:13 30.13490 40.07609 39088 ft 499 kts 132°
2026-05-09 17:13 30.09325 40.14027 39099 ft 500 kts 132°
2026-05-09 17:14 30.05176 40.20413 39100 ft 501 kts 132°
2026-05-09 17:14 30.00962 40.26889 39091 ft 502 kts 131°
2026-05-09 17:15 29.96762 40.33320 39089 ft 502 kts 131°
2026-05-09 17:15 29.92576 40.39713 39091 ft 503 kts 132°
2026-05-09 17:17 29.75715 40.65565 39085 ft 506 kts 127°
2026-05-09 17:18 29.71980 40.72445 39081 ft 507 kts 125°
2026-05-09 17:18 29.68332 40.79385 39089 ft 506 kts 125°
2026-05-09 17:19 29.64656 40.86284 39089 ft 506 kts 126°
2026-05-09 17:19 29.60952 40.93152 39089 ft 505 kts 126°
2026-05-09 17:20 29.57385 40.99739 39080 ft 503 kts 126°
2026-05-09 17:20 29.53688 41.06560 39081 ft 503 kts 126°
2026-05-09 17:21 29.49996 41.13365 39077 ft 502 kts 126°
2026-05-09 17:21 29.46304 41.20158 39082 ft 501 kts 126°
2026-05-09 17:22 29.42617 41.26932 39083 ft 500 kts 126°
2026-05-09 17:22 29.38930 41.33697 39080 ft 500 kts 126°
2026-05-09 17:23 29.35241 41.40452 39081 ft 499 kts 126°
2026-05-09 17:23 29.31549 41.47188 39081 ft 499 kts 126°
2026-05-09 17:25 29.20496 41.67299 39071 ft 498 kts 126°
2026-05-09 17:25 29.16806 41.73993 39072 ft 497 kts 127°
2026-05-09 17:26 29.13112 41.80684 39074 ft 497 kts 127°
2026-05-09 17:26 29.09423 41.87355 39070 ft 496 kts 127°
2026-05-09 17:27 29.05734 41.94016 39074 ft 495 kts 127°
2026-05-09 17:27 29.02048 42.00661 39047 ft 494 kts 127°
2026-05-09 17:28 28.98381 42.07268 39061 ft 491 kts 127°
2026-05-09 17:28 28.94727 42.13841 39063 ft 489 kts 127°
2026-05-09 17:29 28.91080 42.20389 39057 ft 488 kts 127°
2026-05-09 17:29 28.87440 42.26916 39063 ft 487 kts 128°
2026-05-09 17:30 28.83800 42.33431 39067 ft 487 kts 128°
2026-05-09 17:30 28.80136 42.39980 39062 ft 487 kts 128°
2026-05-09 17:31 28.76492 42.46484 39060 ft 487 kts 128°
2026-05-09 17:32 28.67353 42.62754 39055 ft 488 kts 128°
2026-05-09 17:33 28.63724 42.69307 39057 ft 491 kts 124°
2026-05-09 17:33 28.60462 42.76165 39059 ft 494 kts 122°
2026-05-09 17:34 28.57290 42.83108 39053 ft 495 kts 122°
2026-05-09 17:35 28.45955 43.07344 39041 ft 495 kts 123°
2026-05-09 17:36 28.42704 43.14239 39047 ft 495 kts 123°
2026-05-09 17:36 28.39451 43.21129 39046 ft 495 kts 123°
2026-05-09 17:37 28.36194 43.28018 39036 ft 495 kts 124°
2026-05-09 17:37 28.32940 43.34888 39044 ft 494 kts 124°
2026-05-09 17:38 28.29683 43.41753 39034 ft 494 kts 124°
2026-05-09 17:39 28.24797 43.52030 39026 ft 493 kts 124°
2026-05-09 17:39 28.21542 43.58866 39032 ft 493 kts 124°
2026-05-09 17:40 28.18275 43.65691 39018 ft 493 kts 124°
2026-05-09 17:40 28.15535 43.71351 39027 ft 492 kts 125°
2026-05-09 17:41 28.12237 43.78149 39026 ft 493 kts 125°
2026-05-09 17:41 28.08397 43.86062 39020 ft 493 kts 125°
2026-05-09 17:42 28.05097 43.92860 39016 ft 492 kts 126°
2026-05-09 17:42 28.02332 43.98546 39023 ft 492 kts 126°
2026-05-09 17:43 27.99031 44.05322 39024 ft 491 kts 126°
2026-05-09 17:43 27.95730 44.12089 39024 ft 491 kts 126°
2026-05-09 17:44 27.92444 44.18858 39024 ft 491 kts 126°
2026-05-09 17:44 27.89185 44.25652 39017 ft 492 kts 126°
2026-05-09 17:45 27.85922 44.32450 39028 ft 492 kts 126°
2026-05-09 17:45 27.82644 44.39254 39022 ft 493 kts 126°
2026-05-09 17:46 27.79360 44.46058 39010 ft 494 kts 127°
2026-05-09 17:46 27.76060 44.52880 39025 ft 496 kts 127°
2026-05-09 17:47 27.72748 44.59716 39029 ft 497 kts 127°
2026-05-09 17:47 27.69425 44.66570 39021 ft 499 kts 127°
2026-05-09 17:48 27.66088 44.73443 39027 ft 501 kts 126°
2026-05-09 17:48 27.63613 44.80919 39024 ft 520 kts 109°
2026-05-09 17:49 27.62227 44.88957 39027 ft 523 kts 107°
2026-05-09 17:49 27.60865 44.97008 39026 ft 523 kts 108°
2026-05-09 17:50 27.59418 45.05034 39030 ft 522 kts 108°
2026-05-09 17:50 27.57201 45.17060 39033 ft 522 kts 108°
2026-05-09 17:51 27.55721 45.25080 39035 ft 522 kts 108°
2026-05-09 17:51 27.54220 45.33087 39010 ft 523 kts 109°
2026-05-09 17:52 27.52705 45.41102 39029 ft 523 kts 109°
2026-05-09 17:52 27.51186 45.49129 39035 ft 524 kts 109°
2026-05-09 17:53 27.49662 45.57171 39036 ft 525 kts 109°
2026-05-09 17:53 27.48131 45.65226 39042 ft 526 kts 110°
2026-05-09 17:54 27.46596 45.73279 39027 ft 526 kts 110°
2026-05-09 17:54 27.45057 45.81322 39039 ft 525 kts 110°
2026-05-09 17:55 27.43503 45.89418 39037 ft 525 kts 110°
2026-05-09 17:55 27.41956 45.97446 39049 ft 525 kts 110°
2026-05-09 17:56 27.40403 46.05480 39044 ft 526 kts 110°
2026-05-09 17:57 27.38072 46.17499 39031 ft 523 kts 110°
2026-05-09 17:57 27.36519 46.25475 39040 ft 522 kts 110°
2026-05-09 17:58 27.34973 46.33445 39043 ft 522 kts 110°
2026-05-09 17:58 27.33561 46.41468 39042 ft 523 kts 109°
2026-05-09 17:59 27.32195 46.49502 39034 ft 522 kts 108°
2026-05-09 17:59 27.30815 46.57498 39032 ft 520 kts 109°
2026-05-09 18:00 27.29417 46.65469 39039 ft 519 kts 109°
2026-05-09 18:00 27.28004 46.73472 39046 ft 518 kts 109°
2026-05-09 18:01 27.26597 46.81414 39038 ft 518 kts 109°
2026-05-09 18:01 27.25198 46.89299 39034 ft 517 kts 109°
2026-05-09 18:02 27.23789 46.97212 39036 ft 516 kts 109°
2026-05-09 18:02 27.22376 47.05120 39038 ft 516 kts 109°
2026-05-09 18:03 27.20951 47.13066 39037 ft 515 kts 109°
2026-05-09 18:03 27.19540 47.20905 39039 ft 516 kts 109°
2026-05-09 18:04 27.18105 47.28852 39030 ft 516 kts 108°
2026-05-09 18:04 27.16676 47.36745 39036 ft 516 kts 108°
2026-05-09 18:05 27.15241 47.44643 39042 ft 517 kts 109°
2026-05-09 18:05 27.13796 47.52571 39045 ft 519 kts 109°
2026-05-09 18:06 27.12329 47.60509 39038 ft 520 kts 109°
2026-05-09 18:06 27.10841 47.68467 39028 ft 521 kts 109°
2026-05-09 18:07 27.09352 47.76427 39031 ft 521 kts 109°
2026-05-09 18:07 27.07861 47.84390 39024 ft 522 kts 109°
2026-05-09 18:08 27.06247 47.92298 39015 ft 515 kts 116°
2026-05-09 18:08 27.04908 47.95975 39032 ft 504 kts 125°
2026-05-09 18:08 27.03195 47.99355 39010 ft 495 kts 132°
2026-05-09 18:08 27.01134 48.02386 39011 ft 484 kts 140°
2026-05-09 18:09 26.98906 48.05207 39026 ft 483 kts 141°
2026-05-09 18:09 26.94423 48.10843 39023 ft 485 kts 140°
2026-05-09 18:10 26.89968 48.16530 39020 ft 486 kts 140°
2026-05-09 18:10 26.85525 48.22249 39004 ft 487 kts 140°
2026-05-09 18:11 26.81049 48.28006 39016 ft 487 kts 140°
2026-05-09 18:11 26.76620 48.33691 39010 ft 488 kts 140°
2026-05-09 18:12 26.72168 48.39435 39006 ft 489 kts 139°
2026-05-09 18:12 26.67737 48.45209 39010 ft 489 kts 139°
2026-05-09 18:13 26.63299 48.50981 38999 ft 489 kts 139°
2026-05-09 18:13 26.58858 48.56743 38998 ft 489 kts 139°
2026-05-09 18:14 26.54419 48.62493 38994 ft 488 kts 139°
2026-05-09 18:14 26.50051 48.68355 38985 ft 492 kts 134°
2026-05-09 18:15 26.46215 48.74700 38987 ft 493 kts 132°
2026-05-09 18:15 26.42375 48.81025 38990 ft 491 kts 133°
2026-05-09 18:16 26.38502 48.87285 38978 ft 489 kts 133°
2026-05-09 18:16 26.34657 48.93476 38981 ft 488 kts 133°
2026-05-09 18:17 26.30797 48.99696 38986 ft 488 kts 133°
2026-05-09 18:17 26.26934 49.05907 38981 ft 487 kts 133°
2026-05-09 18:18 26.23679 49.11091 38978 ft 487 kts 134°
2026-05-09 18:18 26.19790 49.17283 38983 ft 488 kts 134°
2026-05-09 18:19 26.15902 49.23487 38968 ft 489 kts 133°
2026-05-09 18:19 26.10064 49.32809 38951 ft 490 kts 133°
2026-05-09 18:20 26.06160 49.39036 38962 ft 491 kts 133°
2026-05-09 18:20 26.02243 49.45275 38959 ft 492 kts 133°
2026-05-09 18:21 25.98315 49.51523 38960 ft 493 kts 133°
2026-05-09 18:21 25.94380 49.57775 38942 ft 494 kts 133°
2026-05-09 18:22 25.90440 49.64025 38950 ft 494 kts 133°
2026-05-09 18:22 25.86491 49.70281 38943 ft 495 kts 133°
2026-05-09 18:23 25.82538 49.76535 38944 ft 495 kts 133°
2026-05-09 18:23 25.78605 49.82757 38922 ft 485 kts 133°
2026-05-09 18:24 25.76704 49.85772 38922 ft 469 kts 133°
2026-05-09 18:24 25.74844 49.88721 38922 ft 453 kts 133°
2026-05-09 18:24 25.73065 49.91536 38921 ft 439 kts 134°
2026-05-09 18:25 25.69642 49.96922 38670 ft 420 kts 134°
2026-05-09 18:25 25.67957 49.99560 38231 ft 418 kts 134°
2026-05-09 18:25 25.66276 50.02191 37490 ft 421 kts 134°
2026-05-09 18:25 25.64553 50.04879 36350 ft 435 kts 133°
2026-05-09 18:26 25.62776 50.07658 35122 ft 450 kts 132°
2026-05-09 18:26 25.60940 50.10539 33785 ft 466 kts 131°
2026-05-09 18:26 25.59045 50.13516 32344 ft 479 kts 131°
2026-05-09 18:26 25.57134 50.16585 30978 ft 490 kts 127°
2026-05-09 18:27 25.55510 50.19951 29623 ft 503 kts 117°
2026-05-09 18:27 25.54702 50.22369 28832 ft 506 kts 111°
2026-05-09 18:27 25.53284 50.27249 27886 ft 490 kts 110°
2026-05-09 18:27 25.52263 50.30799 27189 ft 478 kts 110°
2026-05-09 18:28 25.51249 50.34263 26511 ft 468 kts 111°
2026-05-09 18:28 25.50239 50.37645 25861 ft 458 kts 111°
2026-05-09 18:28 25.49236 50.40956 25319 ft 448 kts 111°
2026-05-09 18:28 25.48242 50.44210 25133 ft 444 kts 111°
2026-05-09 18:29 25.47253 50.47440 25023 ft 440 kts 111°
2026-05-09 18:29 25.46294 50.50580 24938 ft 420 kts 110°
2026-05-09 18:29 25.45381 50.53571 24918 ft 401 kts 111°
2026-05-09 18:29 25.44510 50.56422 24912 ft 381 kts 111°
2026-05-09 18:30 25.43679 50.59141 24835 ft 367 kts 111°
2026-05-09 18:30 25.42869 50.61782 24550 ft 360 kts 111°
2026-05-09 18:30 25.42025 50.64374 24134 ft 358 kts 112°
2026-05-09 18:30 25.41120 50.66939 23645 ft 359 kts 113°
2026-05-09 18:31 25.40194 50.69510 23039 ft 361 kts 113°
2026-05-09 18:31 25.39245 50.72141 22201 ft 367 kts 113°
2026-05-09 18:31 25.38282 50.74822 21066 ft 383 kts 112°
2026-05-09 18:31 25.37290 50.77603 19961 ft 394 kts 111°
2026-05-09 18:32 25.36278 50.80455 18899 ft 402 kts 111°
2026-05-09 18:32 25.35254 50.83347 17914 ft 405 kts 110°
2026-05-09 18:32 25.34229 50.86244 16949 ft 404 kts 110°
2026-05-09 18:32 25.33211 50.89119 16077 ft 400 kts 111°
2026-05-09 18:33 25.32200 50.91972 15270 ft 396 kts 111°
2026-05-09 18:33 25.31200 50.94790 14510 ft 391 kts 111°
2026-05-09 18:33 25.30211 50.97576 13751 ft 388 kts 111°
2026-05-09 18:33 25.29229 51.00340 12896 ft 385 kts 110°
2026-05-09 18:34 25.28256 51.03073 12213 ft 378 kts 110°
2026-05-09 18:34 25.27354 51.05767 11609 ft 370 kts 104°
2026-05-09 18:34 25.26861 51.08508 11108 ft 358 kts 94°
2026-05-09 18:34 25.26809 51.11207 10852 ft 344 kts 86°
2026-05-09 18:35 25.26863 51.13811 10671 ft 334 kts 86°
2026-05-09 18:35 25.26912 51.16340 10538 ft 326 kts 86°
2026-05-09 18:35 25.26952 51.18849 10410 ft 326 kts 86°
2026-05-09 18:35 25.26981 51.21311 10269 ft 313 kts 86°
2026-05-09 18:36 25.27006 51.23683 10146 ft 307 kts 86°
2026-05-09 18:36 25.26975 51.26018 10064 ft 301 kts 94°
2026-05-09 18:36 25.26577 51.28307 10055 ft 296 kts 101°
2026-05-09 18:36 25.26073 51.30500 10059 ft 298 kts 102°
2026-05-09 18:37 25.25550 51.32733 10058 ft 302 kts 102°
2026-05-09 18:37 25.25037 51.34976 10056 ft 300 kts 101°
2026-05-09 18:37 25.24541 51.37213 10051 ft 299 kts 101°
2026-05-09 18:37 25.24057 51.39447 10047 ft 299 kts 101°
2026-05-09 18:38 25.23578 51.41677 10053 ft 298 kts 101°
2026-05-09 18:38 25.23100 51.43908 10048 ft 299 kts 101°
2026-05-09 18:38 25.22607 51.46135 10040 ft 299 kts 105°
2026-05-09 18:40 25.10003 51.53704 10041 ft 305 kts 159°
2026-05-09 18:40 25.08034 51.54571 10042 ft 305 kts 159°
2026-05-09 18:40 25.06065 51.55438 10045 ft 305 kts 159°
2026-05-09 18:41 25.04095 51.56305 10033 ft 304 kts 159°
2026-05-09 18:41 25.02127 51.57168 10032 ft 304 kts 159°
2026-05-09 18:41 25.00179 51.58021 9985 ft 298 kts 159°
2026-05-09 18:41 24.98289 51.58848 9910 ft 286 kts 159°
2026-05-09 18:42 24.96465 51.59647 9705 ft 280 kts 159°
2026-05-09 18:42 24.94823 51.60750 9307 ft 279 kts 130°
2026-05-09 18:42 24.93996 51.62620 8939 ft 270 kts 93°
2026-05-09 18:42 24.94269 51.64580 8587 ft 256 kts 57°
2026-05-09 18:43 24.95278 51.66152 8265 ft 250 kts 46°
2026-05-09 18:43 24.96516 51.67467 7890 ft 246 kts 31°
2026-05-09 18:43 24.97927 51.68494 7642 ft 240 kts 27°
2026-05-09 18:43 24.99291 51.69443 7589 ft 223 kts 27°
2026-05-09 18:44 25.00557 51.70334 7463 ft 209 kts 27°
2026-05-09 18:44 25.01767 51.71193 7162 ft 206 kts 27°
2026-05-09 18:44 25.03003 51.71945 6748 ft 201 kts 11°
2026-05-09 18:44 25.04394 51.71946 6174 ft 203 kts 347°
2026-05-09 18:45 25.05765 51.71429 5553 ft 214 kts 337°
2026-05-09 18:45 25.07153 51.70811 4993 ft 222 kts 338°
2026-05-09 18:45 25.08581 51.70189 4631 ft 218 kts 338°
2026-05-09 18:45 25.10029 51.69538 3871 ft 232 kts 338°
2026-05-09 18:46 25.11566 51.68856 3161 ft 242 kts 339°
2026-05-09 18:46 25.13147 51.68166 2472 ft 248 kts 339°
2026-05-09 18:46 25.14713 51.67473 2223 ft 234 kts 339°
2026-05-09 18:46 25.16190 51.66818 1835 ft 221 kts 340°
2026-05-09 18:47 25.17526 51.66222 1648 ft 192 kts 340°
2026-05-09 18:47 25.18682 51.65701 1367 ft 173 kts 339°
2026-05-09 18:47 25.19753 51.65236 1197 ft 154 kts 340°
2026-05-09 18:47 25.20722 51.64803 988 ft 144 kts 339°
2026-05-09 18:48 25.21621 51.64411 839 ft 135 kts 337°
2026-05-09 18:48 25.22533 51.64050 531 ft 135 kts 335°
2026-05-09 18:48 25.23376 51.63642 556 ft 136 kts 336°
2026-05-09 18:48 25.24259 51.63240 350 ft 143 kts 336°
2026-05-09 18:49 25.25195 51.62830 158 ft 145 kts 336°
2026-05-09 18:49 25.26110 51.62427 27 ft 132 kts 339°
2026-05-09 18:49 25.26855 51.62099 23 ft 97 kts 338°
2026-05-09 18:49 25.27366 51.61875 27 ft 61 kts 338°
2026-05-09 18:50 25.27589 51.61763 30 ft 11 kts 310°
2026-05-09 18:50 25.27596 51.61688 27 ft 10 kts 249°
2026-05-09 18:50 25.27575 51.61628 27 ft 3 kts 248°
2026-05-09 18:50 25.27573 51.61622 27 ft 0 kts 248°
2026-05-09 18:52 25.27552 51.61603 27 ft 11 kts 198°
2026-05-09 18:52 25.27465 51.61630 28 ft 14 kts 156°
2026-05-09 18:52 25.27378 51.61669 28 ft 13 kts 159°
2026-05-09 18:53 25.27290 51.61705 28 ft 13 kts 160°
2026-05-09 18:53 25.27206 51.61743 27 ft 13 kts 158°
2026-05-09 18:53 25.27123 51.61780 27 ft 13 kts 158°
2026-05-09 18:53 25.27042 51.61815 27 ft 12 kts 158°
2026-05-09 18:54 25.26961 51.61851 27 ft 12 kts 158°
2026-05-09 18:54 25.26881 51.61886 27 ft 12 kts 158°
2026-05-09 18:54 25.26803 51.61921 27 ft 12 kts 158°
2026-05-09 18:54 25.26727 51.61954 27 ft 12 kts 158°
2026-05-09 18:55 25.26637 51.61994 27 ft 18 kts 158°
2026-05-09 18:55 25.26478 51.62063 28 ft 30 kts 158°
2026-05-09 18:55 25.26284 51.62148 28 ft 25 kts 158°
2026-05-09 18:55 25.26130 51.62217 29 ft 23 kts 159°
2026-05-09 18:56 25.26027 51.62261 29 ft 13 kts 159°
2026-05-09 18:56 25.25960 51.62215 29 ft 13 kts 246°
2026-05-09 18:56 25.25920 51.62129 29 ft 13 kts 224°
2026-05-09 18:56 25.25864 51.62122 29 ft 8 kts 162°
2026-05-09 18:57 25.25816 51.62143 29 ft 6 kts 159°
2026-05-09 18:57 25.25787 51.62117 29 ft 6 kts 242°
2026-05-09 18:57 25.25774 51.62084 29 ft 1 kts 248°
2026-05-09 18:57 25.25771 51.62074 29 ft 2 kts 248°
2026-05-09 18:58 25.25763 51.62053 29 ft 0 kts 247°
2026-05-09 18:58 25.25763 51.62052 29 ft 0 kts 247°